Rochelle, IL

9:07 PM CST on November 23, 2017 (GMT -0600)
Rochelle

Weather History for KRPJ - December, 2012

Change the Weather History Date:

Thursday, December 13, 2012

  Actual Average (KRFD) Record (KRFD)
Temperature  
Mean Temperature 36 °F -  
Max Temperature 46 °F 32 °F 62 °F (2015)
Min Temperature 27 °F 18 °F -14 °F (1958)
Degree Days  
Heating Degree Days 28    
Moisture  
Dew Point 28 °F    
Average Humidity 77    
Maximum Humidity 91    
Minimum Humidity 50    
Precipitation  
Precipitation 0.00 in - - ()
Sea Level Pressure  
Sea Level Pressure 30.17 in    
Wind  
Wind Speed 11 mph (South)    
Max Wind Speed 23 mph    
Max Gust Speed 26 mph    
Visibility 10 miles    
Events      
Averages and records for this station are not official NWS values.
T = Trace of Precipitation, MM = Missing Value Source: NWS Daily Summary

Daily Weather History Graph

Daily Weather History Graph

Search for Another Location

Airport or City:

Trip Planner

Search our weather history database for the weather conditions in past years. The results will help you decide how hot, cold, wet, or windy it might be!

Date:

Astronomy

Dec. 13, 2012 Rise Set
Actual Time 7:15 AM CST 4:25 PM CST
Civil Twilight 6:44 AM CST 4:57 PM CST
Nautical Twilight 6:09 AM CST 5:32 PM CST
Astronomical Twilight 5:35 AM CST 6:06 PM CST
Moon 7:23 AM CST (12/13) 5:08 PM CST (12/13)
Length of Visible Light 10h 12m
Length of Day
9h 09m
New Moon, 0% of the Moon is Illuminated
Dec 13
New Moon
Dec 19
First Quarter
Dec 28
Full
Jan 4
Last Quarter
Jan 11
New

Hourly Weather History & Observations

Time (CST) Temp. Windchill Dew Point Humidity Pressure Visibility Wind Dir Wind Speed Gust Speed Precip Events Conditions
12:15 AM 32.0 °F 24.2 °F 27.1 °F 82% 30.22 in 10.0 mi South 9.2 mph - N/A   Clear
12:35 AM 31.3 °F 24.7 °F 26.6 °F 83% 30.23 in 10.0 mi SSW 6.9 mph - N/A   Clear
12:55 AM 32.0 °F 23.6 °F 26.6 °F 80% 30.23 in 10.0 mi South 10.4 mph - N/A   Clear
1:15 AM 31.3 °F 22.7 °F 26.6 °F 83% 30.23 in 10.0 mi South 10.4 mph - N/A   Clear
1:35 AM 31.1 °F 21.9 °F 26.4 °F 83% 30.23 in 10.0 mi South 11.5 mph - N/A   Clear
1:55 AM 30.7 °F 22.0 °F 26.1 °F 83% 30.24 in 10.0 mi South 10.4 mph - N/A   Clear
2:15 AM 30.2 °F 21.9 °F 25.7 °F 83% 30.24 in 10.0 mi South 9.2 mph - N/A   Clear
2:35 AM 29.3 °F 20.2 °F 25.7 °F 86% 30.24 in 10.0 mi South 10.4 mph - N/A   Clear
2:55 AM 29.1 °F 20.0 °F 25.3 °F 86% 30.24 in 10.0 mi South 10.4 mph - N/A   Clear
3:15 AM 29.3 °F 20.2 °F 25.3 °F 85% 30.24 in 10.0 mi South 10.4 mph - N/A   Clear
3:35 AM 27.5 °F 19.3 °F 24.4 °F 88% 30.23 in 10.0 mi SSE 8.1 mph - N/A   Clear
3:55 AM 27.1 °F 18.2 °F 24.4 °F 90% 30.22 in 10.0 mi South 9.2 mph - N/A   Clear
4:15 AM 28.4 °F 19.7 °F 25.2 °F 88% 30.22 in 10.0 mi South 9.2 mph - N/A   Clear
4:35 AM 28.4 °F 19.1 °F 24.8 °F 86% 30.23 in 10.0 mi South 10.4 mph - N/A   Clear
4:55 AM 28.4 °F 19.7 °F 24.8 °F 86% 30.23 in 10.0 mi South 9.2 mph - N/A   Clear
5:15 AM 27.5 °F 19.3 °F 24.3 °F 88% 30.22 in 10.0 mi South 8.1 mph - N/A   Clear
5:35 AM 27.3 °F 19.1 °F 24.3 °F 88% 30.21 in 10.0 mi South 8.1 mph - N/A   Clear
5:55 AM 28.8 °F 19.5 °F 24.8 °F 85% 30.21 in 10.0 mi South 10.4 mph - N/A   Clear
6:15 AM 28.6 °F 19.3 °F 24.8 °F 86% 30.21 in 10.0 mi South 10.4 mph - N/A   Clear
6:35 AM 28.9 °F 19.8 °F 24.8 °F 84% 30.21 in 10.0 mi South 10.4 mph - N/A   Clear
6:55 AM 29.3 °F 19.1 °F 24.6 °F 83% 30.21 in 10.0 mi SSE 12.7 mph - N/A   Clear
7:15 AM 27.9 °F 17.8 °F 24.6 °F 88% 30.21 in 10.0 mi SSE 11.5 mph - N/A   Clear
7:35 AM 27.5 °F 17.4 °F 24.8 °F 90% 30.21 in 10.0 mi SSE 11.5 mph - N/A   Clear
7:55 AM 29.1 °F 19.4 °F 25.7 °F 87% 30.20 in 10.0 mi SSE 11.5 mph - N/A   Clear
8:15 AM 31.1 °F 21.9 °F 26.2 °F 82% 30.20 in 10.0 mi South 11.5 mph - N/A   Clear
8:35 AM 32.0 °F 22.1 °F 26.8 °F 81% 30.19 in 10.0 mi South 13.8 mph - N/A   Clear
8:55 AM 34.2 °F 24.0 °F 27.0 °F 75% 30.19 in 10.0 mi South 16.1 mph - N/A   Clear
9:15 AM 36.0 °F 26.0 °F 27.0 °F 70% 30.19 in 10.0 mi South 17.3 mph - N/A   Clear
9:35 AM 36.7 °F 26.6 °F 27.3 °F 69% 30.19 in 10.0 mi SSW 18.4 mph 24.2 mph N/A   Clear
9:55 AM 37.4 °F 26.6 °F 27.9 °F 68% 30.19 in 10.0 mi SSW 21.9 mph - N/A   Clear
10:15 AM 38.5 °F 28.9 °F 28.2 °F 67% 30.18 in 10.0 mi SSW 18.4 mph - N/A   Clear
10:35 AM 39.6 °F 30.3 °F 28.2 °F 64% 30.17 in 10.0 mi South 18.4 mph 24.2 mph N/A   Clear
10:55 AM 40.6 °F 31.2 °F 28.4 °F 62% 30.16 in 10.0 mi South 20.7 mph - N/A   Clear
11:15 AM 41.5 °F 32.9 °F 29.1 °F 61% 30.16 in 10.0 mi SSW 18.4 mph - N/A   Clear
11:35 AM 42.3 °F 33.6 °F 28.6 °F 58% 30.15 in 10.0 mi SSW 19.6 mph 24.2 mph N/A   Clear
11:55 AM 43.2 °F 34.0 °F 28.2 °F 56% 30.14 in 10.0 mi SSW 23.0 mph - N/A   Clear
12:15 PM 43.9 °F 35.4 °F 29.1 °F 56% 30.13 in 10.0 mi SSW 20.7 mph 26.5 mph N/A   Clear
12:35 PM 44.6 °F 36.9 °F 29.3 °F 55% 30.12 in 10.0 mi SSW 18.4 mph 24.2 mph N/A   Clear
12:55 PM 45.5 °F 38.1 °F 30.4 °F 56% 30.12 in 10.0 mi SSW 18.4 mph 23.0 mph N/A   Clear
1:15 PM 46.2 °F 39.3 °F 30.7 °F 55% 30.10 in 10.0 mi SSW 17.3 mph - N/A   Clear
1:35 PM 46.8 °F - 29.1 °F 50% 30.10 in 10.0 mi SSW 17.3 mph 25.3 mph N/A   Clear
1:55 PM 46.6 °F - 28.9 °F 50% 30.08 in 10.0 mi SSW 20.7 mph 24.2 mph N/A   Clear
2:15 PM 46.6 °F - 29.3 °F 51% 30.08 in 10.0 mi SSW 18.4 mph - N/A   Clear
2:35 PM 46.4 °F 40.4 °F 31.1 °F 55% 30.09 in 10.0 mi SSW 13.8 mph - N/A   Clear
2:55 PM 46.4 °F 39.8 °F 29.7 °F 52% 30.08 in 10.0 mi SSW 16.1 mph 21.9 mph N/A   Clear
3:15 PM 45.9 °F 39.4 °F 31.6 °F 58% 30.09 in 10.0 mi SSW 15.0 mph - N/A   Clear
3:35 PM 45.1 °F 38.8 °F 30.2 °F 56% 30.09 in 10.0 mi SSW 13.8 mph - N/A   Clear
3:55 PM 43.3 °F 37.2 °F 30.4 °F 60% 30.09 in 10.0 mi SSW 11.5 mph - N/A   Clear
5:15 PM 34.2 °F 26.8 °F 29.1 °F 82% 30.10 in 10.0 mi South 9.2 mph - N/A   Clear
6:55 PM 32.9 °F 25.3 °F 29.1 °F 86% 30.12 in 10.0 mi South 9.2 mph - N/A   Clear
7:15 PM 32.4 °F 24.6 °F 28.9 °F 87% 30.12 in 10.0 mi South 9.2 mph - N/A   Clear
7:55 PM 34.0 °F 25.0 °F 29.3 °F 83% 30.12 in 10.0 mi South 12.7 mph - N/A   Clear
8:15 PM 34.0 °F 26.0 °F 29.3 °F 83% - 10.0 mi SSW 10.4 mph - N/A   Clear
8:35 PM 32.9 °F 25.9 °F 29.3 °F 87% 30.12 in 10.0 mi SSW 8.1 mph - N/A   Clear
8:55 PM 32.5 °F 27.1 °F 29.3 °F 88% 30.12 in 10.0 mi SSW 5.8 mph - N/A   Clear
9:15 PM 31.8 °F 24.6 °F 28.9 °F 89% 30.13 in 10.0 mi South 8.1 mph - N/A   Clear
9:55 PM 32.0 °F 25.6 °F 29.1 °F 89% 30.14 in 10.0 mi SSW 6.9 mph - N/A   Clear
10:15 PM 31.6 °F 26.0 °F 28.9 °F 90% 30.14 in 10.0 mi SSW 5.8 mph - N/A   Clear
10:35 PM 31.3 °F 25.6 °F 28.9 °F 91% 30.14 in 10.0 mi South 5.8 mph - N/A   Clear
10:55 PM 31.1 °F 26.4 °F 28.8 °F 91% 30.13 in 10.0 mi South 4.6 mph - N/A   Clear
11:15 PM 31.5 °F 25.8 °F 28.9 °F 90% 30.14 in 10.0 mi South 5.8 mph - N/A   Clear
11:35 PM 30.7 °F 27.3 °F 28.2 °F 90% 30.14 in 10.0 mi South 3.5 mph - N/A   Clear